Regional Weather Roundup
Issued by NWS Midland/Odessa, TX

Skip options and go directly to product.
Home | Oldest Version | Previous Version | Current Version | All | Graphics & Text | Save Text | Print | Product List | Glossary On

Skip product version selection by date and time.   
789
ASUS44 KMAF 310010
RWRMAF
MIDLAND AREA WEATHER ROUNDUP
NATIONAL WEATHER SERVICE MIDLAND TX
700 PM CDT MON MAR 30 2015

...IN SOUTHWEST TEXAS AND SOUTHEAST NEW MEXICO...

CITY           SKY/WX    TMP DP  RH WIND       PRES   REMARKS
ALPINE         CLOUDY    75  43  31 E5        30.19S
ANDREWS        FAIR      75  52  44 S6        30.08S
ARTESIA        CLOUDY    72  48  43 SE15      30.06F
BIG SPRING     PTSUNNY   82  49  32 S8        30.06F
CARLSBAD       CLOUDY    73  50  44 SE10      30.05F
DRYDEN           N/A     73  61  65 SE9       30.06S
FORT STOCKTON  MOSUNNY   79  52  38 E13       30.05F
GUAD PASS      CLOUDY    69  39  33 NE8       30.18F
HOBBS          SUNNY     72  48  43 SE13      30.09S
MARFA          CLOUDY    75  28  17 CALM      30.18S
MIDLAND AIRPK  CLOUDY    79  51  36 S6        30.04F
MIDLAND INTL   CLOUDY    79  53  40 S8        30.04F
ODESSA         CLOUDY    78  52  40 S8        30.06F
PECOS          CLOUDY    78  49  37 E7        30.03F
PRESIDIO       FAIR      82  41  23 MISG      30.03S
SEMINOLE       CLOUDY    73  51  46 S8        30.09F
SNYDER         PTSUNNY   78  51  39 S5        30.05F
WINK           CLOUDY    77  51  40 S3        30.04F
$$
...OTHER STATIONS IN TEXAS...

CITY           SKY/WX    TMP DP  RH WIND       PRES   REMARKS
ABILENE        MOSUNNY   80  56  43 SE12      30.03F
AMARILLO       PTSUNNY   75  33  21 S14G23    30.03F
AUSTIN         MOCLDY    77  63  61 S14       30.04F
BROWNSVILLE    PTCLDY    75  66  73 SE16      30.08S
CORPUS CHRISTI PTCLDY    74  65  73 SE23      30.07S
DALLAS FTW     CLOUDY    73  63  70 SE12      30.03F
DEL RIO        CLOUDY    79  62  56 S6        30.02F
EL PASO        CLOUDY    84  26  12 S15G21    30.05F
HOUSTON INT    PTCLDY    79  59  50 SW6       30.08S
LUBBOCK        CLOUDY    73  47  39 S8        30.06F
SAN ANGELO     SUNNY     85  55  35 S13       30.01F
SAN ANTONIO    MOSUNNY   77  63  61 S8        30.07S
WACO           PTCLDY    74  63  68 SE9       30.04F
WICHITA FALLS  NOT AVBL
$$
...OTHER LOCATIONS IN NEW MEXICO...

CITY           SKY/WX    TMP DP  RH WIND       PRES   REMARKS
ALAMAGORDO     CLOUDY    77  28  16 SW7       30.07S
ALBUQUERQUE    PTSUNNY   77  14   9 CALM      30.09F
CANNON AFB     MOSUNNY   80  31  17 SW17      30.05F
CLOVIS         MOSUNNY   77  37  24 S16G22    30.04F
HOLLOMAN AFB   PTSUNNY   81  24  12 S6        30.04S
ROSWELL        CLOUDY    73  44  35 S15       30.06F
RUIDOSO        PTSUNNY   64  25  22 W22G33    30.23R
SANTA FE       PTSUNNY   66  21  18 N14       30.17S
TRUTH OR CONSE PTSUNNY   78  24  13 S8        30.07F
TUCUMCARI      PTSUNNY   83  22  10 SW15      30.00F
$$

USA.gov is the U.S. government's official web portal to all federal, state and local government web resources and services.